Flag for Canada Weather past 2 weeks in Windsor, Ontario, Canada

Now
72 °F

Clear.


Feels Like: 67 °F
Forecast: 70 / 87 °F
Wind: 8 mph from Southwest

Location: Windsor Weather Station

Current Time: Sep 2, 2015 at 2:33:08 AM

Latest Report: Sep 2, 2015 at 2:00 AM


Visibility: 12 mi

Pressure: 30.05 "Hg

Humidity: 94%

Dew point: 70 °F

Location of WindsorLocation

Historic Weather in Windsor — Graph

°F

Windsor temperature yesterday

Maximum temperature yesterday: 86 °F (at 1:00 PM)
Minimum temperature yesterday: 63 °F (at 6:49 AM)
Average temperature yesterday: 74 °F

Past Weeks' High & Low Weather Summary

 TemperatureHumidityPressure
High86 °F (Sep 1, 1:00 PM)100% (Aug 23, 9:00 PM)30.22 "Hg (Aug 23, 9:00 PM)
Low50 °F (Aug 28, 5:00 AM)39% (Aug 21, 2:00 PM)29.65 "Hg (Aug 20, 3:00 AM)
Average68 °F78%30.01 "Hg
* Reported Aug 18 1:00 AM — Sep 2 1:00 AM, Windsor, Weather by CustomWeather, © 2015

Note: Actual official high and low records may vary slightly from our data, if they occured in-between our weather recording intervals... More about our weather records

Advertising

Windsor weather history for previous 24 hours

 ConditionsComfort  
Time TempWeatherWind HumidityBarometerVisibility
1:00 AM
Wed, Sep 2
72 °FPassing clouds.7 mph94%30.05 "Hg12 mi
12:00 AM73 °FPassing clouds.8 mph94%30.04 "Hg12 mi
11:00 PM
Tue, Sep 1
75 °FPassing clouds.7 mph89%30.04 "Hg10 mi
10:00 PM75 °FPassing clouds.6 mph89%30.05 "Hg12 mi
9:00 PM75 °FSunny.7 mph89%30.03 "Hg12 mi
8:00 PM79 °FPassing clouds.7 mph79%30.03 "Hg10 mi
7:00 PM82 °FPassing clouds.13 mph66%30.02 "Hg10 mi
6:00 PM84 °FScattered clouds.13 mph62%30.01 "Hg10 mi
5:00 PM86 °FScattered clouds.9 mph62%30.02 "Hg8 mi
4:00 PM84 °FScattered clouds.12 mph66%30.03 "Hg12 mi
3:00 PM86 °FScattered clouds.6 mph62%30.04 "Hg12 mi
2:00 PM86 °FScattered clouds.9 mph62%30.06 "Hg12 mi
1:00 PM86 °FScattered clouds.7 mph59%30.07 "Hg10 mi
12:00 PM82 °FPassing clouds.2 mph70%30.08 "Hg8 mi
11:00 AM81 °FPassing clouds.6 mph70%30.09 "Hg7 mi
10:00 AM77 °FFog.5 mph83%30.09 "Hg6 mi
9:00 AM72 °FFog.3 mph100%30.09 "Hg5 mi
8:00 AM64 °FFog.No wind100%30.09 "Hg4 mi
7:00 AM63 °FFog.No wind100%30.08 "Hg2 mi
6:49 AM63 °FFog.No wind100%30.08 "Hg2 mi
6:00 AM64 °FFog.No wind100%30.06 "Hg1 mi
5:00 AM66 °FFog.5 mph100%30.06 "Hg0 mi
4:00 AM68 °FFog.2 mph94%30.05 "Hg0 mi
3:00 AM64 °FFog.No wind100%30.06 "Hg0 mi
2:46 AM64 °FFog.No wind100%30.05 "Hg0 mi
2:00 AM66 °FFog.No wind100%30.06 "Hg2 mi
Weather by CustomWeather, © 2015

See weather overviewHow to use our weather pages